This demonstration page uses our WeatherBlox Daily Observations layout. Learn more.

Left ArrowRight Arrow

39.12711, -84.51439

Hourly Observations for October 4, 2018

Temp ( °F °C ) Dew Point ( °F °C ) Humidity (%) Winds ( mph kmh ) Pressure ( in mb ) Visibility ( mi km ) Precip ( " mm )
12:53 am 00:53 Clear 72 22.2 70 21.1 94 94 SSW 8 13 29.96 1015 10 16 N/A
1:53 am 01:53 Clear 72 22.2 70 21.1 94 94 S 7 11 29.98 1015 10 16 N/A
2:53 am 02:53 Mostly Clear 71 21.7 70 21.1 96 96 SW 6 9 29.99 1016 10 16 N/A
3:53 am 03:53 Partly Cloudy 72 22.2 70 21.1 94 94 SW 6 9 29.98 1015 10 16 N/A
4:53 am 04:53 Partly Cloudy 72 22.2 70 21.1 94 94 SSW 8 13 29.98 1015 10 16 N/A
5:53 am 05:53 Cloudy 73 22.8 70 21.1 90 90 SSW 8 13 29.98 1015 10 16 N/A
6:53 am 06:53 Clear 73 22.8 70 21.1 90 90 SW 10 17 29.99 1016 10 16 N/A
7:53 am 07:53 Partly Cloudy 74 23.3 70 21.1 88 88 SSW 10 17 30.00 1016 10 16 N/A
8:53 am 08:53 Partly Cloudy 74 23.3 70 21.1 88 88 SW 8 13 30.02 1017 10 16 N/A
9:53 am 09:53 Partly Cloudy 76 24.4 71 21.7 85 85 SW 9 15 30.01 1016 10 16 N/A
10:53 am 10:53 Mostly Cloudy 79 26.1 72 22.2 79 79 W 12 19 30.03 1017 10 16 N/A
11:15 am 11:15 Partly Cloudy 79 26.1 72 22.2 79 79 WSW 12 19 30.00 1016 10 16 N/A
11:53 am 11:53 Partly Cloudy 81 27.2 73 22.8 77 77 W 12 19 30.03 1017 10 16 N/A
12:18 pm 12:18 Mostly Cloudy 81 27.2 73 22.8 77 77 W 10 17 30.00 1016 10 16 N/A
12:53 pm 12:53 Cloudy 80 26.7 73 22.8 79 79 W 8 13 30.03 1017 10 16 N/A
1:53 pm 13:53 Cloudy 81 27.2 73 22.8 77 77 W 8 13 30.02 1017 10 16 N/A
2:53 pm 14:53 Cloudy 81 27.2 73 22.8 77 77 VRB 3 6 30.02 1017 10 16 N/A
3:53 pm 15:53 Partly Cloudy 81 27.2 73 22.8 77 77 WNW 8 13 30.02 1017 10 16 N/A
4:53 pm 16:53 Mostly Cloudy 82 27.8 73 22.8 74 74 W 7 11 30.01 1016 10 16 N/A
5:53 pm 17:53 Cloudy with Light Rain 77 25 73 22.8 88 88 NNW 10 17 30.03 1017 7 11 0.02 0.51
5:55 pm 17:55 Cloudy with Rain 77 25 73 22.8 88 88 NW 8 13 30.00 1016 2 3 0.06 1.52
6:02 pm 18:02 Cloudy with Light Rain 75 23.9 74 23.3 96 96 W 7 11 30.00 1016 5 8 0.11 2.79
6:51 pm 18:51 Cloudy 75 24 72 22 89 89 N 10 17 30.03 1017 10 16 0.12 3.05
6:53 pm 18:53 Cloudy 75 23.9 71 21.7 88 88 N 12 19 30.04 1017 10 16 0.12 3.05
7:53 pm 19:53 Cloudy 73 22.8 71 21.7 94 94 E 3 6 30.06 1018 10 16 N/A
8:53 pm 20:53 Cloudy 73 22.8 69 20.6 87 87 NNE 3 6 30.07 1018 10 16 N/A
9:53 pm 21:53 Cloudy 70 21.1 70 21.1 100 100 N N/A 30.09 1019 10 16 N/A
10:27 pm 22:27 Cloudy 71 21.7 68 20 90 90 NE 8 13 30.09 1019 10 16 N/A
10:38 pm 22:38 Cloudy 71 21.7 68 20 90 90 NE 9 15 30.09 1019 10 16 N/A
10:53 pm 22:53 Mostly Cloudy 70 21.1 66 18.9 87 87 E 13 20 30.10 1019 10 16 N/A
11:28 pm 23:28 Mostly Cloudy 69 20.6 64 17.8 84 84 NE 12 19 30.09 1019 10 16 N/A
11:40 pm 23:40 Mostly Cloudy 68 20 64 17.8 87 87 ENE 8 13 30.09 1019 10 16 N/A
11:53 pm 23:53 Partly Cloudy 67 19.4 64 17.8 91 91 NE 6 9 30.11 1020 10 16 N/A

Powered by AerisWeather